Regional Weather Roundup
Issued by NWS

Home | Current Version | Previous Version | Graphics & Text | Print | Product List | Glossary On
Versions: 1 2 3 4 5 6 7 8 9 10 11 12 13 14 15 16 17 18 19 20 21 22 23 24 25 26 27 28 29 30 31 32 33 34 35 36 37 38 39 40 41 42 43 44 45 46 47 48 49 50
274
ASUS45 KTFX 252210
RWRMT
MONTANA REGIONAL WEATHER ROUNDUP
NATIONAL WEATHER SERVICE GREAT FALLS MT
400 PM MDT SUN SEP 25 2016

NOTE: "FAIR" INDICATES FEW OR NO CLOUDS BELOW 12000 FEET WITH NO
SIGNIFICANT WEATHER AND/OR OBSTRUCTIONS TO VISIBILITY.

MTZ001>007-043-252300-
WEST OF THE DIVIDE

CITY           SKY/WX    TMP DP  RH WIND       PRES   REMARKS
KALISPELL      CLOUDY    61  38  42 SE10      30.41S
MISSOULA       CLOUDY    65  39  38 N7        30.43F
BUTTE          PTSUNNY   63  34  33 W12       30.44S
MULLAN PASS    CLOUDY    53  38  56 VRB6      30.50S
ANACONDA         N/A     63  34  34 N9        30.42S
DEER LODGE       N/A     63  32  31 N8        30.45S
EUREKA           N/A     63  37  39 SE5       30.38S
HAMILTON         N/A     70  36  28 E5        30.42F
LIBBY            N/A     66  39  37 N3        30.37F
PLAINS           N/A     72  39  30 N3        30.37F
RONAN            N/A     67  33  28 S5        30.43S
THOMPSON FALLS   N/A     68  40  35 SW2       30.41F
$$

MTZ008-052>055-252300-
SOUTHWEST MONTANA

CITY           SKY/WX    TMP DP  RH WIND       PRES   REMARKS
BOZEMAN        MOSUNNY   65  35  33 VRB3      30.40S
DILLON         MOSUNNY   67  37  33 W5        30.41F
W YELLOWSTONE  SUNNY     59  32  36 SW16G24   30.48S
ENNIS          PTSUNNY   66  32  28 CALM      30.46F
THREE FORKS      N/A     71 -28   1 CALM      30.33S
TWIN BRIDGES     N/A     66  32  28 E2        30.35F
$$

MTZ009-010-012-014-046-048-049-054-252300-
EAST SLOPES AND CENTRAL MONTANA

CITY           SKY/WX    TMP DP  RH WIND       PRES   REMARKS
CUT BANK       MOSUNNY   67  38  34 W16G28    30.26S
GREAT FALLS    SUNNY     69  34  27 SW18      30.27S
MALMSTROM AFB  SUNNY     68  35  29 W14G25    30.28S
HELENA         SUNNY     70  34  26 W17G23    30.35F
AUGUSTA          N/A     66  36  32 W20G25    30.31R
BOWMANS CRNR     N/A     66  36  32 W22G29    30.29F
CHOTEAU          N/A     68  37  32 W13G29    30.30S
CONRAD           N/A     69  42  37 W14       30.27S
FAIRFIELD        N/A     68  35  29 W14       30.28R
POWER            N/A     68  34  29 W16       30.27S
RAYNESFORD       N/A     65  34  31 W16G29    30.29F
$$

MTZ011-013-016-021-045-047-050-051-252300-
NORTH CENTRAL MONTANA

CITY           SKY/WX    TMP DP  RH WIND       PRES   REMARKS
HAVRE          SUNNY     67  33  28 W18       30.24F
LEWISTOWN      SUNNY     62  34  35 SW10      30.31S
N BAR RANCH      N/A     63  34  34 NW10G18   30.33S
CHINOOK          N/A     66  36  32 W10G16    30.23F
DENTON           N/A     63  33  32 W8G17     30.26S
GEYSER           N/A     66  36  32 W20G25    30.31R
GRASS RANGE      N/A     62  34  35 W12G24    30.27S
JUDITH GAP       N/A     62  37  39 N16G23    30.31S
ROY              N/A     63  37  37 MISG      30.28S
STANFORD         N/A     65  36  34 W12G21    30.30S
WINIFRED         N/A     62  34  34 MISG      30.29S
$$

MTZ017>020-022>027-061-062-252300-
NORTHEAST MONTANA

CITY           SKY/WX    TMP DP  RH WIND       PRES   REMARKS
GLASGOW        SUNNY     66  38  35 W14G26    30.23F
JORDAN           N/A     68  38  33 W13       30.25F
SIDNEY         MOSUNNY   66  35  31 NW16G25   30.20S
WOLF POINT     MOSUNNY   68  35  29 W16G25    30.22F
PLENTYWOOD       N/A     63  28  27 NW22G36   30.17S
POPLAR           N/A     64  34  32 NW18G26   30.21S
SCOBEY           N/A     64  29  27 W21       30.18F
$$

MTZ028>42-056>058-252300-
SOUTHCENTRAL AND SOUTHEAST MONTANA

CITY           SKY/WX    TMP DP  RH WIND       PRES   REMARKS
BAKER          SUNNY     62  35  36 W20G29    30.26F
BILLINGS       MOSUNNY   66  35  31 SW10      30.30F
LIVINGSTON     SUNNY     67  33  28 W24G33    30.35F
MILES CITY     SUNNY     66  36  32 W16       30.27F
BIG TIMBER     SUNNY     64  32  29 W26G35    30.35S
FORSYTH          N/A     64  39  39 W10       30.28S
HARLOWTON        N/A     65  34  31 W23G33    30.30F
LAUREL           N/A     67  40  37 S7        30.26F
ROUNDUP          N/A     66  32  28 SW7       30.18S
$$

REGIONAL REPORTS...DAKOTAS

CITY           SKY/WX    TMP DP  RH WIND       PRES   REMARKS
WILLISTON      SUNNY     64  32  30 NW20G35   30.18F
MINOT          SUNNY     63  35  35 NW31G43   30.06R
DICKINSON      MOSUNNY   61  29  29 NW22G36   30.18S
CROSBY           N/A     63  32  31 NW28G35   30.16S
WATFORD CITY     N/A     63  32  31 NW22G36   30.18S
BISMARCK       MOSUNNY   63  32  31 NW24G37   30.12S
GRAND FORKS    LGT RAIN  53  48  83 NW18G25   29.88R
FARGO          CLOUDY    61  42  49 NW28G37   29.92R
BUFFALO SD       N/A     64  35  34 NW25G32   30.21R
RAPID CITY     SUNNY     65  30  27 NW24G30   30.29F
$$

REGIONAL REPORTS...WYOMING/IDAHO/WASHINGTON

CITY           SKY/WX    TMP DP  RH WIND       PRES   REMARKS
GILLETTE       SUNNY     57  36  45 W8        30.36S
SHERIDAN       SUNNY     65  37  35 N5        30.33F
BUFFALO WY     SUNNY     59  36  42 CALM      30.37F
CODY           SUNNY     61  40  45 E10       30.37S
YELLOWSTONE LA   N/A     54  32  43 W10       30.53S
IDAHO FALLS    SUNNY     64  33  31 SW7       30.47F
SALMON         MOSUNNY   64  32  29 CALM      30.42F
BOISE          SUNNY     73  32  22 VRB6      30.40F
SPOKANE        MOSUNNY   71  39  31 SW9       30.39S
$$

REGIONAL REPORTS...ALBERTA

CITY           SKY/WX    TMP DP  RH WIND       PRES   REMARKS
EDMONTON       MOSUNNY   63  32  31 SW8       30.17S
CALGARY        MOSUNNY   64  36  34 S7        30.19F
LETHBRIDGE     MOSUNNY   68  37  32 VRB13     30.21F
MEDICINE HAT   SUNNY     66  30  26 W8        30.20F
$$

REGIONAL REPORTS...SASKATCHEWAN

CITY           SKY/WX    TMP DP  RH WIND       PRES   REMARKS
SWIFT CURRENT  SUNNY     63  28  27 NW17      30.19F
REGINA         MOSUNNY   61  34  36 NW24G32   30.14R
SASKATOON      MOSUNNY   63  30  29 NW22      30.14S
$$




USA.gov is the U.S. government's official web portal to all federal, state and local government web resources and services.